Station Historical Data
Daily Summary for August 25, 2017 Units:  English    Metric   Both
Next Day »
Daily Weekly Monthly Yearly Custom
  High: Low: Average:
Temperature: 92.4 °F 68.6 °F 77.4 °F
Dew Point: 52.5 °F 43.3 °F 48.1 °F
Humidity: 49% 24% 37%
Wind Speed: 13.0mph 0.0mph 2.6mph
Wind Gust: 15.0mph - -
Wind- - SE
Pressure: 29.87 in 29.78 in -
Precipitation: 0.00 in    
Historical Graphs
 
 
Tabular Data for August 25, 2017
Time Temperature Dew Point Pressure Wind Wind Speed Wind Gust Humidity Rainfall Rate (Hourly) solar Conditions
00:04 71.4 °F 48.4 °F 29.79 in Calm   12.0 mph 44% 0.00 in 0.00 W/m2
00:09 71.4 °F 48.4 °F 29.79 in East 6.0 mph 12.0 mph 44% 0.00 in 0.00 W/m2
00:14 71.4 °F 48.4 °F 29.79 in ESE 9.0 mph 13.0 mph 44% 0.00 in 0.00 W/m2
00:19 71.4 °F 48.4 °F 29.79 in East 7.0 mph 11.0 mph 44% 0.00 in 0.00 W/m2
00:24 71.3 °F 48.3 °F 29.79 in East 12.0 mph 12.0 mph 44% 0.00 in 0.00 W/m2
00:29 71.3 °F 48.3 °F 29.79 in East 4.0 mph 12.0 mph 44% 0.00 in 0.00 W/m2
00:34 71.3 °F 48.3 °F 29.79 in East 6.0 mph 13.0 mph 44% 0.00 in 0.00 W/m2
00:39 71.2 °F 48.2 °F 29.79 in East 9.0 mph 12.0 mph 44% 0.00 in 0.00 W/m2
00:44 71.2 °F 48.2 °F 29.79 in East 7.0 mph 12.0 mph 44% 0.00 in 0.00 W/m2
00:49 71.1 °F 48.7 °F 29.79 in ESE 8.0 mph 13.0 mph 45% 0.00 in 0.00 W/m2
00:54 71.0 °F 48.6 °F 29.79 in ESE 7.0 mph 11.0 mph 45% 0.00 in 0.00 W/m2
00:59 70.9 °F 47.9 °F 29.79 in Calm   11.0 mph 44% 0.00 in 0.00 W/m2
01:04 70.9 °F 48.5 °F 29.79 in Calm   11.0 mph 45% 0.00 in 0.00 W/m2
01:09 70.8 °F 48.4 °F 29.79 in East 2.0 mph 12.0 mph 45% 0.00 in 0.00 W/m2
01:14 70.8 °F 48.4 °F 29.79 in East 5.0 mph 9.0 mph 45% 0.00 in 0.00 W/m2
01:19 70.8 °F 48.4 °F 29.79 in Calm   11.0 mph 45% 0.00 in 0.00 W/m2
01:22 70.7 °F 48.3 °F 29.79 in East 4.0 mph 11.0 mph 45% 0.00 in 0.00 W/m2
01:27 70.6 °F 48.2 °F 29.79 in East 8.0 mph 8.0 mph 45% 0.00 in 0.00 W/m2
01:32 70.6 °F 48.2 °F 29.79 in East 7.0 mph 12.0 mph 45% 0.00 in 0.00 W/m2
01:33 70.6 °F 48.2 °F 29.79 in Calm   13.0 mph 45% 0.00 in 0.00 W/m2
01:38 70.5 °F 48.2 °F 29.79 in ESE 5.0 mph 9.0 mph 45% 0.00 in 0.00 W/m2
01:43 70.4 °F 48.1 °F 29.79 in Calm   8.0 mph 45% 0.00 in 0.00 W/m2
01:48 70.4 °F 48.1 °F 29.79 in ESE 4.0 mph 11.0 mph 45% 0.00 in 0.00 W/m2
01:53 70.4 °F 48.1 °F 29.79 in East 5.0 mph 11.0 mph 45% 0.00 in 0.00 W/m2
01:58 70.3 °F 48.0 °F 29.78 in East 7.0 mph 9.0 mph 45% 0.00 in 0.00 W/m2
02:04 70.3 °F 48.0 °F 29.78 in East 7.0 mph 11.0 mph 45% 0.00 in 0.00 W/m2
02:09 70.2 °F 47.9 °F 29.79 in ESE 4.0 mph 12.0 mph 45% 0.00 in 0.00 W/m2
02:14 70.2 °F 47.9 °F 29.78 in East 5.0 mph 14.0 mph 45% 0.00 in 0.00 W/m2
02:19 70.1 °F 47.8 °F 29.78 in ESE 2.0 mph 8.0 mph 45% 0.00 in 0.00 W/m2
02:24 70.1 °F 47.8 °F 29.78 in East 6.0 mph 12.0 mph 45% 0.00 in 0.00 W/m2
02:29 70.0 °F 47.7 °F 29.78 in ESE 2.0 mph 13.0 mph 45% 0.00 in 0.00 W/m2
02:34 70.0 °F 48.3 °F 29.78 in East 9.0 mph 13.0 mph 46% 0.00 in 0.00 W/m2
02:39 69.9 °F 47.6 °F 29.78 in Calm   13.0 mph 45% 0.00 in 0.00 W/m2
02:44 69.9 °F 47.6 °F 29.78 in East 7.0 mph 11.0 mph 45% 0.00 in 0.00 W/m2
02:49 69.8 °F 47.5 °F 29.78 in East 6.0 mph 11.0 mph 45% 0.00 in 0.00 W/m2
02:54 69.8 °F 47.5 °F 29.78 in Calm   11.0 mph 45% 0.00 in 0.00 W/m2
02:59 69.8 °F 47.5 °F 29.78 in Calm   14.0 mph 45% 0.00 in 0.00 W/m2
03:04 69.8 °F 47.5 °F 29.78 in Calm   9.0 mph 45% 0.00 in 0.00 W/m2
03:09 69.8 °F 47.5 °F 29.78 in East 1.0 mph 11.0 mph 45% 0.00 in 0.00 W/m2
03:14 69.8 °F 47.5 °F 29.78 in East 2.0 mph 13.0 mph 45% 0.00 in 0.00 W/m2
03:19 69.8 °F 46.9 °F 29.78 in East 4.0 mph 13.0 mph 44% 0.00 in 0.00 W/m2
03:24 69.8 °F 46.9 °F 29.78 in Calm   8.0 mph 44% 0.00 in 0.00 W/m2
03:29 69.8 °F 46.9 °F 29.79 in Calm   9.0 mph 44% 0.00 in 0.00 W/m2
03:34 69.8 °F 46.9 °F 29.78 in Calm   9.0 mph 44% 0.00 in 0.00 W/m2
03:39 69.8 °F 46.9 °F 29.78 in Calm   8.0 mph 44% 0.00 in 0.00 W/m2
03:44 69.7 °F 46.8 °F 29.79 in ESE 7.0 mph 9.0 mph 44% 0.00 in 0.00 W/m2
03:49 69.7 °F 46.8 °F 29.79 in ESE 13.0 mph 13.0 mph 44% 0.00 in 0.00 W/m2
03:54 69.7 °F 46.8 °F 29.79 in ESE 6.0 mph 12.0 mph 44% 0.00 in 0.00 W/m2
03:59 69.7 °F 46.8 °F 29.79 in ESE 6.0 mph 11.0 mph 44% 0.00 in 0.00 W/m2
04:04 69.6 °F 46.8 °F 29.79 in ESE 6.0 mph 12.0 mph 44% 0.00 in 0.00 W/m2
04:09 69.6 °F 46.1 °F 29.79 in East 6.0 mph 11.0 mph 43% 0.00 in 0.00 W/m2
04:14 69.6 °F 46.8 °F 29.79 in East 9.0 mph 9.0 mph 44% 0.00 in 0.00 W/m2
04:19 69.5 °F 46.7 °F 29.79 in East 1.0 mph 9.0 mph 44% 0.00 in 0.00 W/m2
04:24 69.5 °F 46.0 °F 29.78 in East 4.0 mph 11.0 mph 43% 0.00 in 0.00 W/m2
04:29 69.5 °F 46.0 °F 29.79 in Calm   11.0 mph 43% 0.00 in 0.00 W/m2
04:34 69.5 °F 46.0 °F 29.79 in ESE 4.0 mph 11.0 mph 43% 0.00 in 0.00 W/m2
04:39 69.4 °F 46.0 °F 29.78 in East 1.0 mph 12.0 mph 43% 0.00 in 0.00 W/m2
04:44 69.4 °F 46.0 °F 29.79 in ESE 4.0 mph 8.0 mph 43% 0.00 in 0.00 W/m2
04:54 69.3 °F 45.9 °F 29.79 in East 2.0 mph 13.0 mph 43% 0.00 in 0.00 W/m2
04:58 69.3 °F 45.9 °F 29.79 in East 5.0 mph 11.0 mph 43% 0.00 in 0.00 W/m2
05:03 69.2 °F 45.8 °F 29.79 in Calm   9.0 mph 43% 0.00 in 0.00 W/m2
05:08 69.2 °F 45.2 °F 29.79 in East 7.0 mph 11.0 mph 42% 0.00 in 0.00 W/m2
05:13 69.2 °F 45.2 °F 29.79 in ESE 2.0 mph 11.0 mph 42% 0.00 in 0.00 W/m2
05:18 69.1 °F 45.1 °F 29.79 in ESE 4.0 mph 9.0 mph 42% 0.00 in 0.00 W/m2
05:23 69.1 °F 45.1 °F 29.79 in East 6.0 mph 12.0 mph 42% 0.00 in 0.00 W/m2
05:28 69.1 °F 45.1 °F 29.79 in East 6.0 mph 12.0 mph 42% 0.00 in 0.00 W/m2
05:33 69.0 °F 45.0 °F 29.79 in East 11.0 mph 11.0 mph 42% 0.00 in 0.00 W/m2
05:38 69.0 °F 45.0 °F 29.79 in East 5.0 mph 8.0 mph 42% 0.00 in 0.00 W/m2
05:43 69.0 °F 45.0 °F 29.79 in East 8.0 mph 11.0 mph 42% 0.00 in 0.00 W/m2
05:48 69.0 °F 45.0 °F 29.79 in ESE 7.0 mph 15.0 mph 42% 0.00 in 0.00 W/m2
05:53 68.9 °F 44.2 °F 29.79 in East 4.0 mph 12.0 mph 41% 0.00 in 0.00 W/m2
05:58 68.9 °F 44.2 °F 29.79 in ESE 4.0 mph 15.0 mph 41% 0.00 in 0.00 W/m2
06:03 68.9 °F 44.2 °F 29.80 in East 6.0 mph 13.0 mph 41% 0.00 in 0.00 W/m2
06:08 68.9 °F 44.2 °F 29.80 in ESE 9.0 mph 12.0 mph 41% 0.00 in 0.00 W/m2
06:13 68.9 °F 44.2 °F 29.80 in ESE 7.0 mph 14.0 mph 41% 0.00 in 0.00 W/m2
06:18 68.8 °F 44.2 °F 29.80 in East 2.0 mph 9.0 mph 41% 0.00 in 0.00 W/m2
06:23 68.8 °F 44.2 °F 29.80 in East 8.0 mph 13.0 mph 41% 0.00 in 0.00 W/m2
06:28 68.7 °F 43.4 °F 29.80 in ESE 4.0 mph 9.0 mph 40% 0.00 in 7.00 W/m2
06:33 68.7 °F 44.1 °F 29.80 in East 6.0 mph 11.0 mph 41% 0.00 in 9.00 W/m2
06:38 68.6 °F 43.3 °F 29.80 in Calm   13.0 mph 40% 0.00 in 12.00 W/m2
06:43 68.6 °F 44.0 °F 29.80 in East 4.0 mph 13.0 mph 41% 0.00 in 16.00 W/m2
06:48 68.6 °F 44.0 °F 29.80 in East 8.0 mph 12.0 mph 41% 0.00 in 19.00 W/m2
06:53 68.7 °F 44.1 °F 29.80 in Calm   15.0 mph 41% 0.00 in 25.00 W/m2
06:58 68.7 °F 44.1 °F 29.81 in East 6.0 mph 9.0 mph 41% 0.00 in 32.00 W/m2
07:03 68.7 °F 44.1 °F 29.81 in East 5.0 mph 12.0 mph 41% 0.00 in 42.00 W/m2
07:08 68.7 °F 44.1 °F 29.81 in Calm   12.0 mph 41% 0.00 in 54.00 W/m2
07:13 68.8 °F 44.2 °F 29.81 in East 1.0 mph 12.0 mph 41% 0.00 in 67.00 W/m2
07:18 68.7 °F 44.1 °F 29.81 in East 2.0 mph 11.0 mph 41% 0.00 in 79.00 W/m2
07:23 68.8 °F 44.2 °F 29.81 in Calm   7.0 mph 41% 0.00 in 93.00 W/m2
07:28 68.8 °F 44.2 °F 29.81 in Calm   14.0 mph 41% 0.00 in 111.00 W/m2
07:33 68.8 °F 44.8 °F 29.81 in Calm   11.0 mph 42% 0.00 in 128.00 W/m2
07:38 68.8 °F 44.8 °F 29.81 in ESE 7.0 mph 11.0 mph 42% 0.00 in 144.00 W/m2
07:43 68.8 °F 44.8 °F 29.81 in ESE 1.0 mph 13.0 mph 42% 0.00 in 167.00 W/m2
07:48 68.9 °F 45.5 °F 29.82 in ESE 1.0 mph 11.0 mph 43% 0.00 in 183.00 W/m2
07:53 69.0 °F 45.6 °F 29.82 in ESE 2.0 mph 9.0 mph 43% 0.00 in 204.00 W/m2
07:58 69.0 °F 45.6 °F 29.82 in ESE 7.0 mph 13.0 mph 43% 0.00 in 223.00 W/m2
08:03 69.1 °F 46.3 °F 29.82 in ESE 2.0 mph 9.0 mph 44% 0.00 in 243.00 W/m2
08:08 69.2 °F 46.4 °F 29.82 in ESE 7.0 mph 11.0 mph 44% 0.00 in 260.00 W/m2
08:13 69.3 °F 46.5 °F 29.82 in Calm   11.0 mph 44% 0.00 in 278.00 W/m2
08:18 69.4 °F 47.2 °F 29.82 in Calm   9.0 mph 45% 0.00 in 295.00 W/m2
08:23 69.4 °F 47.2 °F 29.83 in ESE 2.0 mph 7.0 mph 45% 0.00 in 309.00 W/m2
08:28 69.5 °F 47.8 °F 29.82 in Calm   7.0 mph 46% 0.00 in 329.00 W/m2
08:33 69.7 °F 48.0 °F 29.82 in Calm   6.0 mph 46% 0.00 in 345.00 W/m2
08:38 69.9 °F 48.8 °F 29.83 in ESE 5.0 mph 8.0 mph 47% 0.00 in 357.00 W/m2
08:43 70.0 °F 48.9 °F 29.82 in ESE 4.0 mph 8.0 mph 47% 0.00 in 374.00 W/m2
08:48 70.2 °F 49.6 °F 29.83 in ESE 7.0 mph 7.0 mph 48% 0.00 in 390.00 W/m2
08:53 70.5 °F 49.9 °F 29.83 in Calm   7.0 mph 48% 0.00 in 406.00 W/m2
08:58 70.7 °F 50.1 °F 29.83 in Calm   1.0 mph 48% 0.00 in 422.00 W/m2
09:03 70.9 °F 50.2 °F 29.83 in Calm   2.0 mph 48% 0.00 in 438.00 W/m2
09:09 71.2 °F 50.5 °F 29.83 in Calm   5.0 mph 48% 0.00 in 454.00 W/m2
09:14 71.4 °F 51.3 °F 29.83 in Calm   5.0 mph 49% 0.00 in 469.00 W/m2
09:19 71.7 °F 51.5 °F 29.83 in Calm   6.0 mph 49% 0.00 in 483.00 W/m2
09:24 72.0 °F 51.8 °F 29.83 in Calm   5.0 mph 49% 0.00 in 499.00 W/m2
09:29 72.3 °F 52.1 °F 29.83 in ESE 1.0 mph 4.0 mph 49% 0.00 in 515.00 W/m2
09:34 72.6 °F 51.8 °F 29.83 in Calm   1.0 mph 48% 0.00 in 529.00 W/m2
09:39 72.8 °F 51.4 °F 29.83 in Calm   4.0 mph 47% 0.00 in 547.00 W/m2
09:44 73.4 °F 52.0 °F 29.83 in ESE 5.0 mph 5.0 mph 47% 0.00 in 561.00 W/m2
09:49 73.7 °F 51.1 °F 29.83 in ESE 1.0 mph 7.0 mph 45% 0.00 in 573.00 W/m2
09:54 74.1 °F 52.0 °F 29.83 in Calm   4.0 mph 46% 0.00 in 589.00 W/m2
09:59 74.5 °F 51.8 °F 29.83 in ESE 2.0 mph 6.0 mph 45% 0.00 in 599.00 W/m2
10:04 75.0 °F 51.0 °F 29.84 in Calm   6.0 mph 43% 0.00 in 613.00 W/m2
10:09 75.4 °F 51.4 °F 29.84 in Calm   2.0 mph 43% 0.00 in 628.00 W/m2
10:14 75.9 °F 52.5 °F 29.84 in Calm   1.0 mph 44% 0.00 in 642.00 W/m2
10:19 76.4 °F 51.6 °F 29.84 in Calm   7.0 mph 42% 0.00 in 654.00 W/m2
10:24 76.9 °F 52.1 °F 29.84 in Calm   1.0 mph 42% 0.00 in 664.00 W/m2
10:29 77.3 °F 51.8 °F 29.84 in Calm   8.0 mph 41% 0.00 in 677.00 W/m2
10:34 77.7 °F 51.5 °F 29.84 in Calm   8.0 mph 40% 0.00 in 687.00 W/m2
10:39 78.3 °F 51.3 °F 29.84 in Calm   7.0 mph 39% 0.00 in 700.00 W/m2
10:44 78.8 °F 50.4 °F 29.84 in SSW 1.0 mph 9.0 mph 37% 0.00 in 708.00 W/m2
10:49 79.2 °F 50.7 °F 29.84 in South 7.0 mph 8.0 mph 37% 0.00 in 719.00 W/m2
10:54 79.5 °F 49.5 °F 29.84 in Calm   7.0 mph 35% 0.00 in 729.00 W/m2
10:59 80.0 °F 49.9 °F 29.84 in Calm   7.0 mph 35% 0.00 in 740.00 W/m2
11:04 80.5 °F 51.1 °F 29.84 in Calm   7.0 mph 36% 0.00 in 744.00 W/m2
11:09 80.8 °F 51.4 °F 29.84 in SW 8.0 mph 10.0 mph 36% 0.00 in 756.00 W/m2
11:14 81.2 °F 51.0 °F 29.84 in SSW 2.0 mph 10.0 mph 35% 0.00 in 765.00 W/m2
11:20 81.6 °F 49.7 °F 29.84 in SSW 4.0 mph 14.0 mph 33% 0.00 in 773.00 W/m2
11:25 82.0 °F 50.9 °F 29.84 in SSW 5.0 mph 10.0 mph 34% 0.00 in 780.00 W/m2
11:30 82.4 °F 52.0 °F 29.84 in SW 3.0 mph 7.0 mph 35% 0.00 in 789.00 W/m2
11:35 82.8 °F 50.8 °F 29.84 in SW 2.0 mph 5.0 mph 33% 0.00 in 793.00 W/m2
11:40 83.1 °F 51.0 °F 29.84 in Calm   7.0 mph 33% 0.00 in 803.00 W/m2
11:45 83.4 °F 52.1 °F 29.84 in SSW 4.0 mph 4.0 mph 34% 0.00 in 807.00 W/m2
11:50 83.8 °F 50.8 °F 29.84 in SW 4.0 mph 9.0 mph 32% 0.00 in 819.00 W/m2
11:55 84.1 °F 49.3 °F 29.84 in SW 6.0 mph 10.0 mph 30% 0.00 in 823.00 W/m2
12:00 84.6 °F 49.8 °F 29.84 in SW 7.0 mph 9.0 mph 30% 0.00 in 826.00 W/m2
12:05 85.0 °F 49.2 °F 29.84 in Calm   10.0 mph 29% 0.00 in 835.00 W/m2
12:10 85.4 °F 48.6 °F 29.84 in SW 6.0 mph 10.0 mph 28% 0.00 in 837.00 W/m2
12:15 85.7 °F 48.9 °F 29.84 in Calm   11.0 mph 28% 0.00 in 842.00 W/m2
12:20 86.2 °F 48.3 °F 29.84 in Calm   7.0 mph 27% 0.00 in 847.00 W/m2
12:25 86.8 °F 46.8 °F 29.84 in Calm   9.0 mph 25% 0.00 in 847.00 W/m2
12:30 87.5 °F 47.4 °F 29.84 in Calm   9.0 mph 25% 0.00 in 853.00 W/m2
12:35 88.0 °F 47.8 °F 29.84 in Calm   9.0 mph 25% 0.00 in 856.00 W/m2
12:40 88.6 °F 47.2 °F 29.84 in South 2.0 mph 10.0 mph 24% 0.00 in 856.00 W/m2
12:45 89.2 °F 48.8 °F 29.84 in Calm   6.0 mph 25% 0.00 in 856.00 W/m2
12:50 89.6 °F 49.2 °F 29.84 in South 3.0 mph 12.0 mph 25% 0.00 in 856.00 W/m2
12:55 90.1 °F 49.6 °F 29.84 in Calm   5.0 mph 25% 0.00 in 856.00 W/m2
13:00 90.3 °F 50.8 °F 29.84 in Calm   6.0 mph 26% 0.00 in 858.00 W/m2
13:05 89.9 °F 51.5 °F 29.84 in SW 6.0 mph 11.0 mph 27% 0.00 in 860.00 W/m2
13:10 89.8 °F 50.4 °F 29.83 in WSW 1.0 mph 10.0 mph 26% 0.00 in 858.00 W/m2
13:15 90.2 °F 49.7 °F 29.83 in SW 4.0 mph 12.0 mph 25% 0.00 in 854.00 W/m2
13:20 90.4 °F 49.8 °F 29.84 in SSW 6.0 mph 10.0 mph 25% 0.00 in 854.00 W/m2
13:25 90.7 °F 50.1 °F 29.84 in SW 4.0 mph 6.0 mph 25% 0.00 in 854.00 W/m2
13:30 90.5 °F 48.8 °F 29.83 in SSW 3.0 mph 11.0 mph 24% 0.00 in 851.00 W/m2
13:35 90.7 °F 49.0 °F 29.83 in SW 6.0 mph 9.0 mph 24% 0.00 in 847.00 W/m2
13:40 91.0 °F 49.2 °F 29.83 in SSW 2.0 mph 8.0 mph 24% 0.00 in 846.00 W/m2
13:45 91.3 °F 49.5 °F 29.83 in SW 1.0 mph 2.0 mph 24% 0.00 in 842.00 W/m2
13:50 91.6 °F 50.8 °F 29.83 in Calm   6.0 mph 25% 0.00 in 837.00 W/m2
13:55 92.0 °F 51.2 °F 29.83 in Calm   9.0 mph 25% 0.00 in 833.00 W/m2
14:00 92.4 °F 51.5 °F 29.83 in WSW 1.0 mph 8.0 mph 25% 0.00 in 828.00 W/m2
14:05 92.1 °F 52.3 °F 29.83 in SSW 2.0 mph 6.0 mph 26% 0.00 in 824.00 W/m2
14:10 90.4 °F 50.9 °F 29.83 in West 6.0 mph 6.0 mph 26% 0.00 in 823.00 W/m2
14:15 89.7 °F 51.3 °F 29.83 in WSW 1.0 mph 10.0 mph 27% 0.00 in 810.00 W/m2
14:17 89.7 °F 51.3 °F 29.83 in Calm   10.0 mph 27% 0.00 in 810.00 W/m2
14:22 89.9 °F 50.5 °F 29.83 in SW 5.0 mph 6.0 mph 26% 0.00 in 803.00 W/m2
14:27 90.2 °F 50.7 °F 29.83 in WSW 1.0 mph 1.0 mph 26% 0.00 in 798.00 W/m2
14:32 90.0 °F 51.6 °F 29.83 in SW 5.0 mph 10.0 mph 27% 0.00 in 789.00 W/m2
14:37 89.7 °F 50.3 °F 29.83 in SSE 4.0 mph 13.0 mph 26% 0.00 in 784.00 W/m2
14:42 89.6 °F 51.2 °F 29.83 in Calm   7.0 mph 27% 0.00 in 777.00 W/m2
14:47 89.4 °F 51.0 °F 29.83 in WSW 5.0 mph 9.0 mph 27% 0.00 in 765.00 W/m2
14:53 89.1 °F 49.8 °F 29.83 in Calm   7.0 mph 26% 0.00 in 763.00 W/m2
14:58 88.8 °F 50.5 °F 29.83 in WSW 7.0 mph 9.0 mph 27% 0.00 in 754.00 W/m2
15:03 88.3 °F 50.1 °F 29.83 in SW 5.0 mph 7.0 mph 27% 0.00 in 742.00 W/m2
15:08 88.4 °F 50.2 °F 29.83 in Calm   7.0 mph 27% 0.00 in 733.00 W/m2
15:13 88.5 °F 50.3 °F 29.83 in SW 7.0 mph 13.0 mph 27% 0.00 in 726.00 W/m2
15:18 88.8 °F 49.5 °F 29.83 in WSW 8.0 mph 12.0 mph 26% 0.00 in 717.00 W/m2
15:23 88.8 °F 50.5 °F 29.83 in SW 6.0 mph 8.0 mph 27% 0.00 in 705.00 W/m2
15:28 88.8 °F 49.5 °F 29.83 in SW 5.0 mph 6.0 mph 26% 0.00 in 693.00 W/m2
15:33 88.6 °F 49.4 °F 29.83 in Calm   6.0 mph 26% 0.00 in 682.00 W/m2
15:38 88.5 °F 49.3 °F 29.83 in SW 3.0 mph 8.0 mph 26% 0.00 in 673.00 W/m2
15:43 88.4 °F 49.2 °F 29.83 in Calm   4.0 mph 26% 0.00 in 657.00 W/m2
15:48 88.4 °F 50.2 °F 29.83 in WSW 6.0 mph 12.0 mph 27% 0.00 in 654.00 W/m2
15:53 88.4 °F 49.2 °F 29.83 in SSW 7.0 mph 8.0 mph 26% 0.00 in 640.00 W/m2
15:58 88.3 °F 48.1 °F 29.83 in SW 3.0 mph 6.0 mph 25% 0.00 in 626.00 W/m2
16:03 88.3 °F 49.1 °F 29.83 in SW 5.0 mph 7.0 mph 26% 0.00 in 613.00 W/m2
16:08 88.2 °F 49.0 °F 29.83 in Calm   9.0 mph 26% 0.00 in 601.00 W/m2
16:13 88.2 °F 49.0 °F 29.83 in SW 6.0 mph 8.0 mph 26% 0.00 in 585.00 W/m2
16:18 88.1 °F 48.9 °F 29.83 in Calm   10.0 mph 26% 0.00 in 575.00 W/m2
16:23 88.0 °F 48.8 °F 29.83 in Calm   7.0 mph 26% 0.00 in 559.00 W/m2
16:28 88.0 °F 47.8 °F 29.83 in Calm   4.0 mph 25% 0.00 in 550.00 W/m2
16:33 88.0 °F 47.8 °F 29.83 in SSW 4.0 mph 6.0 mph 25% 0.00 in 531.00 W/m2
16:38 88.0 °F 48.8 °F 29.83 in SSW 1.0 mph 1.0 mph 26% 0.00 in 519.00 W/m2
16:43 87.9 °F 47.7 °F 29.83 in Calm   6.0 mph 25% 0.00 in 504.00 W/m2
16:48 87.7 °F 48.6 °F 29.83 in WSW 5.0 mph 8.0 mph 26% 0.00 in 487.00 W/m2
16:53 87.3 °F 47.2 °F 29.83 in West 3.0 mph 8.0 mph 25% 0.00 in 471.00 W/m2
16:58 87.2 °F 47.1 °F 29.83 in Calm   6.0 mph 25% 0.00 in 455.00 W/m2
17:03 87.0 °F 47.0 °F 29.83 in Calm   4.0 mph 25% 0.00 in 443.00 W/m2
17:08 86.9 °F 46.9 °F 29.83 in West 5.0 mph 6.0 mph 25% 0.00 in 427.00 W/m2
17:13 86.9 °F 48.9 °F 29.83 in Calm   5.0 mph 27% 0.00 in 417.00 W/m2
17:18 86.8 °F 46.8 °F 29.83 in Calm   4.0 mph 25% 0.00 in 399.00 W/m2
17:23 86.7 °F 49.7 °F 29.83 in West 1.0 mph 6.0 mph 28% 0.00 in 383.00 W/m2
17:28 86.6 °F 48.7 °F 29.83 in Calm     27% 0.00 in 367.00 W/m2
17:33 86.5 °F 48.6 °F 29.83 in Calm   7.0 mph 27% 0.00 in 352.00 W/m2
17:38 86.5 °F 47.6 °F 29.83 in Calm   5.0 mph 26% 0.00 in 338.00 W/m2
17:43 86.5 °F 46.5 °F 29.83 in Calm     25% 0.00 in 320.00 W/m2
17:48 86.4 °F 47.5 °F 29.83 in Calm     26% 0.00 in 308.00 W/m2
17:53 86.4 °F 46.5 °F 29.83 in Calm   1.0 mph 25% 0.00 in 292.00 W/m2
17:58 86.4 °F 46.5 °F 29.83 in Calm     25% 0.00 in 274.00 W/m2
18:03 86.3 °F 46.4 °F 29.83 in Calm   1.0 mph 25% 0.00 in 258.00 W/m2
18:08 86.3 °F 47.4 °F 29.83 in Calm     26% 0.00 in 243.00 W/m2
18:13 86.2 °F 47.3 °F 29.83 in Calm   1.0 mph 26% 0.00 in 225.00 W/m2
18:18 86.0 °F 49.1 °F 29.83 in Calm     28% 0.00 in 209.00 W/m2
18:23 85.7 °F 48.9 °F 29.83 in Calm   1.0 mph 28% 0.00 in 195.00 W/m2
18:28 85.3 °F 49.5 °F 29.83 in Calm     29% 0.00 in 179.00 W/m2
18:33 84.8 °F 49.0 °F 29.83 in Calm     29% 0.00 in 160.00 W/m2
18:38 84.4 °F 49.6 °F 29.83 in Calm     30% 0.00 in 139.00 W/m2
18:43 84.1 °F 49.3 °F 29.83 in Calm     30% 0.00 in 120.00 W/m2
18:48 83.6 °F 50.7 °F 29.83 in Calm     32% 0.00 in 102.00 W/m2
18:53 83.1 °F 51.0 °F 29.83 in Calm     33% 0.00 in 84.00 W/m2
18:58 82.4 °F 51.2 °F 29.83 in Calm     34% 0.00 in 74.00 W/m2
19:03 81.8 °F 51.5 °F 29.83 in Calm     35% 0.00 in 56.00 W/m2
19:08 81.2 °F 51.0 °F 29.83 in Calm     35% 0.00 in 44.00 W/m2
19:13 80.8 °F 51.4 °F 29.83 in Calm     36% 0.00 in 33.00 W/m2
19:18 80.4 °F 50.3 °F 29.83 in Calm     35% 0.00 in 25.00 W/m2
19:23 80.2 °F 50.1 °F 29.83 in Calm     35% 0.00 in 18.00 W/m2
19:28 79.9 °F 49.8 °F 29.83 in Calm     35% 0.00 in 14.00 W/m2
19:33 79.5 °F 49.5 °F 29.83 in Calm     35% 0.00 in 12.00 W/m2
19:38 79.0 °F 49.0 °F 29.83 in Calm     35% 0.00 in 9.00 W/m2
19:43 78.5 °F 47.8 °F 29.83 in Calm     34% 0.00 in 7.00 W/m2
19:48 78.1 °F 47.5 °F 29.83 in Calm     34% 0.00 in 5.00 W/m2
19:53 77.8 °F 47.2 °F 29.83 in Calm     34% 0.00 in 0.00 W/m2
19:58 77.5 °F 46.2 °F 29.83 in Calm     33% 0.00 in 0.00 W/m2
20:03 77.2 °F 46.7 °F 29.83 in Calm     34% 0.00 in 0.00 W/m2
20:08 77.0 °F 46.5 °F 29.83 in Calm     34% 0.00 in 0.00 W/m2
20:23 76.3 °F 45.9 °F 29.84 in Calm     34% 0.00 in 0.00 W/m2
20:25 76.2 °F 45.8 °F 29.84 in Calm     34% 0.00 in 0.00 W/m2
20:28 76.1 °F 45.7 °F 29.84 in Calm     34% 0.00 in 0.00 W/m2
20:30 76.0 °F 45.6 °F 29.84 in Calm     34% 0.00 in 0.00 W/m2
20:31 76.0 °F 45.6 °F 29.84 in Calm     34% 0.00 in 0.00 W/m2
20:36 75.9 °F 45.5 °F 29.84 in Calm     34% 0.00 in 0.00 W/m2
20:41 75.7 °F 45.4 °F 29.84 in Calm     34% 0.00 in 0.00 W/m2
20:47 75.5 °F 45.2 °F 29.84 in Calm     34% 0.00 in 0.00 W/m2
20:52 75.5 °F 45.2 °F 29.84 in Calm     34% 0.00 in 0.00 W/m2
20:57 75.4 °F 45.1 °F 29.85 in Calm     34% 0.00 in 0.00 W/m2
21:02 75.4 °F 45.9 °F 29.85 in Calm     35% 0.00 in 0.00 W/m2
21:07 75.3 °F 45.8 °F 29.85 in Calm   2.0 mph 35% 0.00 in 0.00 W/m2
21:12 75.2 °F 45.7 °F 29.85 in SW 1.0 mph 3.0 mph 35% 0.00 in 0.00 W/m2
21:17 75.2 °F 45.7 °F 29.85 in SSE 6.0 mph 6.0 mph 35% 0.00 in 0.00 W/m2
21:22 75.2 °F 46.4 °F 29.85 in Calm   7.0 mph 36% 0.00 in 0.00 W/m2
21:27 75.2 °F 46.4 °F 29.85 in ESE 1.0 mph 2.0 mph 36% 0.00 in 0.00 W/m2
21:32 75.2 °F 47.2 °F 29.85 in ESE 7.0 mph 9.0 mph 37% 0.00 in 0.00 W/m2
21:37 75.2 °F 47.9 °F 29.85 in ESE 5.0 mph 12.0 mph 38% 0.00 in 0.00 W/m2
21:38 75.2 °F 47.9 °F 29.85 in ESE 7.0 mph 12.0 mph 38% 0.00 in 0.00 W/m2
21:42 75.2 °F 47.9 °F 29.85 in East 2.0 mph 13.0 mph 38% 0.00 in 0.00 W/m2
21:47 75.2 °F 47.9 °F 29.85 in Calm   9.0 mph 38% 0.00 in 0.00 W/m2
21:52 75.2 °F 47.9 °F 29.85 in ESE 5.0 mph 11.0 mph 38% 0.00 in 0.00 W/m2
21:57 75.3 °F 48.0 °F 29.85 in ESE 4.0 mph 11.0 mph 38% 0.00 in 0.00 W/m2
22:02 75.3 °F 48.0 °F 29.86 in Calm   11.0 mph 38% 0.00 in 0.00 W/m2
22:07 75.4 °F 48.0 °F 29.85 in ESE 2.0 mph 8.0 mph 38% 0.00 in 0.00 W/m2
22:12 75.5 °F 48.1 °F 29.85 in Calm   9.0 mph 38% 0.00 in 0.00 W/m2
22:17 75.5 °F 48.1 °F 29.86 in Calm   8.0 mph 38% 0.00 in 0.00 W/m2
22:22 75.6 °F 48.2 °F 29.86 in Calm   11.0 mph 38% 0.00 in 0.00 W/m2
22:27 75.6 °F 48.2 °F 29.86 in ESE 4.0 mph 13.0 mph 38% 0.00 in 0.00 W/m2
22:32 75.6 °F 48.2 °F 29.86 in ESE 7.0 mph 13.0 mph 38% 0.00 in 0.00 W/m2
22:37 75.7 °F 48.3 °F 29.86 in ESE 2.0 mph 11.0 mph 38% 0.00 in 0.00 W/m2
22:42 75.7 °F 47.6 °F 29.86 in Calm   12.0 mph 37% 0.00 in 0.00 W/m2
22:48 75.7 °F 47.6 °F 29.86 in East 2.0 mph 11.0 mph 37% 0.00 in 0.00 W/m2
22:53 75.8 °F 47.7 °F 29.86 in ESE 2.0 mph 13.0 mph 37% 0.00 in 0.00 W/m2
22:58 75.8 °F 47.7 °F 29.86 in Calm   13.0 mph 37% 0.00 in 0.00 W/m2
23:03 75.8 °F 47.7 °F 29.86 in ESE 8.0 mph 15.0 mph 37% 0.00 in 0.00 W/m2
23:08 75.8 °F 48.4 °F 29.86 in East 1.0 mph 12.0 mph 38% 0.00 in 0.00 W/m2
23:13 75.8 °F 48.4 °F 29.86 in East 2.0 mph 12.0 mph 38% 0.00 in 0.00 W/m2
23:18 75.7 °F 48.3 °F 29.86 in Calm   12.0 mph 38% 0.00 in 0.00 W/m2
23:23 75.7 °F 48.3 °F 29.86 in East 9.0 mph 11.0 mph 38% 0.00 in 0.00 W/m2
23:28 75.7 °F 48.3 °F 29.86 in East 1.0 mph 12.0 mph 38% 0.00 in 0.00 W/m2
23:33 75.6 °F 48.2 °F 29.86 in East 1.0 mph 11.0 mph 38% 0.00 in 0.00 W/m2
23:38 75.6 °F 48.2 °F 29.86 in Calm   13.0 mph 38% 0.00 in 0.00 W/m2
23:43 75.5 °F 48.1 °F 29.86 in East 9.0 mph 9.0 mph 38% 0.00 in 0.00 W/m2
23:48 75.5 °F 48.1 °F 29.86 in East 5.0 mph 13.0 mph 38% 0.00 in 0.00 W/m2
23:53 75.5 °F 48.1 °F 29.86 in East 6.0 mph 11.0 mph 38% 0.00 in 0.00 W/m2
23:58 75.5 °F 48.1 °F 29.87 in Calm     38% 0.00 in 0.00 W/m2
Foresthill Weather
 WU-history PHP script courtesy of   Juneau County Weather.
powered by Cumulus v1.9.3 (1059)
Ambient Weather VWS v14.00
Top Contact Website Map Copyright © 2007 - 2018 Foresthillweather.com Never base important decisions on this or any weather information obtained from the Internet